| time (UTC) | temp F | wind direction | speed MPH | gust MPH | rain 1hr in | rain 24hr in | rain mn in | humidity % | barometer mb |
| 20260504191831 | 71 | 147 | 3.0 | 10.0 | 0.00 | 0.00 | 0.00 | 52 | 1007.5 |
| 20260504191317 | 71 | 161 | 2.0 | 8.0 | 0.00 | 0.00 | 0.00 | 53 | 1007.4 |
| 20260504190828 | 71 | 120 | 2.0 | 8.0 | 0.00 | 0.00 | 0.00 | 53 | 1007.4 |
| 20260504190333 | 71 | 278 | 2.0 | 9.0 | 0.00 | 0.00 | 0.00 | 53 | 1007.4 |
| 20260504185836 | 71 | 140 | 3.0 | 9.0 | 0.00 | 0.00 | 0.00 | 55 | 1007.6 |
| 20260504185321 | 71 | 231 | 3.0 | 10.0 | 0.00 | 0.00 | 0.00 | 54 | 1007.6 |
| 20260504184846 | 71 | 84 | 2.0 | 10.0 | 0.00 | 0.00 | 0.00 | 52 | 1007.6 |
| 20260504184347 | 71 | 267 | 2.0 | 10.0 | 0.00 | 0.00 | 0.00 | 55 | 1007.6 |
| 20260504183818 | 70 | 192 | 4.0 | 10.0 | 0.00 | 0.00 | 0.00 | 55 | 1007.6 |
| 20260504183324 | 70 | 169 | 3.0 | 7.0 | 0.00 | 0.00 | 0.00 | 54 | 1007.6 |
| 20260504182830 | 70 | 237 | 2.0 | 7.0 | 0.00 | 0.00 | 0.00 | 55 | 1007.6 |
| 20260504182336 | 70 | 107 | 2.0 | 8.0 | 0.00 | 0.00 | 0.00 | 56 | 1007.6 |
| 20260504181820 | 70 | 88 | 3.0 | 9.0 | 0.00 | 0.00 | 0.00 | 54 | 1007.6 |
| 20260504181326 | 70 | 169 | 1.0 | 9.0 | 0.00 | 0.00 | 0.00 | 55 | 1007.8 |
| 20260504180813 | 70 | 113 | 3.0 | 9.0 | 0.00 | 0.00 | 0.00 | 54 | 1007.8 |
| 20260504180325 | 70 | 174 | 3.0 | 8.0 | 0.00 | 0.00 | 0.00 | 55 | 1007.8 |
| 20260504175830 | 70 | 130 | 3.0 | 8.0 | 0.00 | 0.00 | 0.00 | 55 | 1008.0 |
| 20260504175335 | 69 | 234 | 3.0 | 9.0 | 0.00 | 0.00 | 0.00 | 55 | 1008.0 |
| 20260504174819 | 69 | 238 | 2.0 | 11.0 | 0.00 | 0.00 | 0.00 | 57 | 1008.0 |
| 20260504174322 | 69 | 60 | 3.0 | 11.0 | 0.00 | 0.00 | 0.00 | 55 | 1008.1 |
| 20260504173828 | 68 | 165 | 3.0 | 11.0 | 0.00 | 0.00 | 0.00 | 60 | 1008.1 |
| 20260504173316 | 68 | 208 | 4.0 | 11.0 | 0.00 | 0.00 | 0.00 | 56 | 1008.1 |
| 20260504172843 | 68 | 212 | 1.0 | 7.0 | 0.00 | 0.00 | 0.00 | 58 | 1008.1 |
| 20260504172327 | 68 | 127 | 1.0 | 8.0 | 0.00 | 0.00 | 0.00 | 60 | 1008.1 |
| 20260504171835 | 68 | 280 | 2.0 | 7.0 | 0.00 | 0.00 | 0.00 | 58 | 1008.1 |
| 20260504171338 | 68 | 191 | 2.0 | 8.0 | 0.00 | 0.00 | 0.00 | 58 | 1008.2 |
| 20260504170825 | 67 | 135 | 4.0 | 9.0 | 0.00 | 0.00 | 0.00 | 58 | 1008.2 |
| 20260504170330 | 67 | 201 | 2.0 | 9.0 | 0.00 | 0.00 | 0.00 | 60 | 1008.2 |
| 20260504160327 | 64 | 126 | 3.0 | 10.0 | 0.00 | 0.00 | 0.00 | 60 | 1008.9 |
| 20260504150818 | 61 | 155 | 4.0 | 10.0 | 0.00 | 0.00 | 0.00 | 61 | 1009.2 |
| 20260504150324 | 61 | 188 | 2.0 | 9.0 | 0.00 | 0.00 | 0.00 | 61 | 1009.2 |
| 20260504140828 | 59 | 213 | 1.0 | 10.0 | 0.00 | 0.00 | 0.00 | 63 | 1009.8 |
| 20260504140332 | 59 | 238 | 3.0 | 10.0 | 0.00 | 0.00 | 0.00 | 62 | 1009.8 |
| 20260504130338 | 56 | 90 | 1.0 | 10.0 | 0.00 | 0.00 | 0.00 | 62 | 1010.0 |
| 20260504120318 | 51 | 200 | 1.0 | 4.0 | 0.00 | 0.00 | 0.00 | 69 | 1009.9 |
| 20260504110335 | 48 | 264 | 0.0 | 0.0 | 0.00 | 0.00 | 0.00 | 73 | 1009.7 |
| 20260504100335 | 49 | 187 | 0.0 | 3.0 | 0.00 | 0.00 | 0.00 | 71 | 1009.8 |
| 20260504081824 | 51 | 199 | 1.0 | 4.0 | 0.00 | 0.00 | 0.00 | 65 | 1010.8 |
| 20260504081331 | 51 | 175 | 0.0 | 4.0 | 0.00 | 0.00 | 0.00 | 65 | 1010.8 |
| 20260504080815 | 51 | 211 | 0.0 | 0.0 | 0.00 | 0.00 | 0.00 | 65 | 1010.8 |
| 20260504080324 | 51 | 211 | 0.0 | 0.0 | 0.00 | 0.00 | 0.00 | 65 | 1010.8 |
| 20260504070345 | 52 | 179 | 1.0 | 5.0 | 0.00 | 0.00 | 0.00 | 62 | 1011.4 |
| 20260504050319 | 50 | 190 | 0.0 | 0.0 | 0.00 | 0.00 | 0.00 | 69 | 1012.6 |
| 20260504045822 | 50 | 190 | 0.0 | 2.0 | 0.00 | 0.00 | 0.00 | 69 | 1012.9 |
| 20260504045348 | 50 | 190 | 0.0 | 2.0 | 0.00 | 0.00 | 0.00 | 69 | 1012.9 |
| 20260504044833 | 50 | 189 | 0.0 | 0.0 | 0.00 | 0.00 | 0.00 | 71 | 1012.9 |
| 20260504044336 | 49 | 189 | 0.0 | 3.0 | 0.00 | 0.00 | 0.00 | 70 | 1012.9 |
| 20260504043821 | 49 | 189 | 0.0 | 3.0 | 0.00 | 0.00 | 0.00 | 72 | 1012.9 |
| 20260504043326 | 49 | 196 | 0.0 | 0.0 | 0.00 | 0.00 | 0.00 | 74 | 1012.9 |
| 20260504042828 | 49 | 196 | 0.0 | 0.0 | 0.00 | 0.00 | 0.00 | 75 | 1012.9 |
| 20260504042334 | 49 | 196 | 0.0 | 0.0 | 0.00 | 0.00 | 0.00 | 75 | 1012.9 |
| 20260504041822 | 48 | 196 | 0.0 | 0.0 | 0.00 | 0.00 | 0.00 | 77 | 1012.9 |
| 20260504041325 | 48 | 196 | 0.0 | 0.0 | 0.00 | 0.00 | 0.00 | 77 | 1012.9 |
| 20260504040829 | 48 | 196 | 0.0 | 0.0 | 0.00 | 0.00 | 0.00 | 77 | 1012.9 |
| 20260504040315 | 48 | 196 | 0.0 | 0.0 | 0.00 | 0.00 | 0.00 | 78 | 1012.9 |
| 20260504035820 | 48 | 196 | 0.0 | 0.0 | 0.00 | 0.00 | 0.00 | 77 | 1013.0 |
| 20260504035331 | 48 | 196 | 0.0 | 0.0 | 0.00 | 0.00 | 0.00 | 78 | 1013.0 |
| 20260504034815 | 48 | 196 | 0.0 | 0.0 | 0.00 | 0.00 | 0.00 | 78 | 1013.0 |
| 20260504034337 | 48 | 196 | 0.0 | 0.0 | 0.00 | 0.00 | 0.00 | 78 | 1013.3 |
| 20260504033826 | 48 | 196 | 0.0 | 0.0 | 0.00 | 0.00 | 0.00 | 79 | 1013.3 |
| 20260504033334 | 48 | 196 | 0.0 | 0.0 | 0.00 | 0.00 | 0.00 | 78 | 1013.3 |
| 20260504032841 | 48 | 196 | 0.0 | 0.0 | 0.00 | 0.00 | 0.00 | 78 | 1013.3 |
| 20260504032345 | 48 | 196 | 0.0 | 0.0 | 0.00 | 0.00 | 0.00 | 79 | 1013.3 |
| 20260504031831 | 48 | 196 | 0.0 | 0.0 | 0.00 | 0.00 | 0.00 | 78 | 1013.3 |
| 20260504031334 | 48 | 196 | 0.0 | 0.0 | 0.00 | 0.00 | 0.00 | 77 | 1013.4 |
| 20260504030822 | 48 | 196 | 0.0 | 0.0 | 0.00 | 0.00 | 0.00 | 77 | 1013.4 |
| 20260504030327 | 48 | 196 | 0.0 | 0.0 | 0.00 | 0.00 | 0.00 | 77 | 1013.4 |
| 20260504025829 | 48 | 196 | 0.0 | 0.0 | 0.00 | 0.00 | 0.00 | 75 | 1013.5 |
| 20260504025357 | 48 | 196 | 0.0 | 0.0 | 0.00 | 0.00 | 0.00 | 75 | 1013.5 |
| 20260504024841 | 48 | 196 | 0.0 | 0.0 | 0.00 | 0.00 | 0.00 | 75 | 1013.5 |
| 20260504024324 | 48 | 196 | 0.0 | 0.0 | 0.00 | 0.00 | 0.00 | 74 | 1013.5 |
| 20260504023829 | 48 | 196 | 0.0 | 0.0 | 0.00 | 0.00 | 0.00 | 74 | 1013.5 |
| 20260504023335 | 49 | 196 | 0.0 | 0.0 | 0.00 | 0.00 | 0.00 | 74 | 1013.5 |
| 20260504022836 | 49 | 196 | 0.0 | 0.0 | 0.00 | 0.00 | 0.00 | 73 | 1013.7 |
| 20260504022325 | 49 | 196 | 0.0 | 0.0 | 0.00 | 0.00 | 0.00 | 73 | 1013.7 |
| 20260504021830 | 49 | 196 | 0.0 | 0.0 | 0.00 | 0.00 | 0.00 | 73 | 1013.7 |
| 20260504021333 | 49 | 196 | 0.0 | 0.0 | 0.00 | 0.00 | 0.00 | 73 | 1013.7 |
| 20260504020823 | 50 | 196 | 0.0 | 0.0 | 0.00 | 0.00 | 0.00 | 72 | 1013.7 |
| 20260504020331 | 50 | 196 | 0.0 | 0.0 | 0.00 | 0.00 | 0.00 | 72 | 1013.7 |
| 20260504015836 | 50 | 196 | 0.0 | 0.0 | 0.00 | 0.00 | 0.00 | 72 | 1013.6 |
| 20260504015341 | 50 | 196 | 0.0 | 0.0 | 0.00 | 0.00 | 0.00 | 72 | 1013.6 |
| 20260504014826 | 50 | 196 | 0.0 | 0.0 | 0.00 | 0.00 | 0.00 | 72 | 1013.6 |
| 20260504014328 | 50 | 196 | 0.0 | 0.0 | 0.00 | 0.00 | 0.00 | 72 | 1013.5 |
| 20260504013833 | 50 | 196 | 0.0 | 0.0 | 0.00 | 0.00 | 0.00 | 72 | 1013.5 |
| 20260504013320 | 51 | 196 | 0.0 | 0.0 | 0.00 | 0.00 | 0.00 | 71 | 1013.5 |
| 20260504012825 | 51 | 196 | 0.0 | 0.0 | 0.00 | 0.00 | 0.00 | 70 | 1013.5 |
| 20260504012330 | 51 | 196 | 0.0 | 0.0 | 0.00 | 0.00 | 0.00 | 70 | 1013.5 |
| 20260504011835 | 51 | 196 | 0.0 | 0.0 | 0.00 | 0.00 | 0.00 | 68 | 1013.5 |
| 20260504011322 | 51 | 196 | 0.0 | 0.0 | 0.00 | 0.00 | 0.00 | 66 | 1013.5 |
| 20260504010825 | 51 | 196 | 0.0 | 0.0 | 0.00 | 0.00 | 0.00 | 66 | 1013.5 |
| 20260504010315 | 51 | 196 | 0.0 | 0.0 | 0.00 | 0.00 | 0.00 | 66 | 1013.5 |
| 20260504005817 | 51 | 196 | 0.0 | 0.0 | 0.00 | 0.00 | 0.00 | 64 | 1013.5 |
| 20260504005325 | 52 | 196 | 0.0 | 3.0 | 0.00 | 0.00 | 0.00 | 64 | 1013.5 |
| 20260504004831 | 52 | 196 | 0.0 | 3.0 | 0.00 | 0.00 | 0.00 | 63 | 1013.5 |
| 20260504004352 | 52 | 236 | 0.0 | 3.0 | 0.00 | 0.00 | 0.00 | 62 | 1013.7 |
| 20260504003820 | 52 | 250 | 0.0 | 5.0 | 0.00 | 0.00 | 0.00 | 63 | 1013.7 |
| 20260504003328 | 52 | 250 | 2.0 | 10.0 | 0.00 | 0.00 | 0.00 | 62 | 1013.7 |
| 20260504002830 | 52 | 275 | 2.0 | 10.0 | 0.00 | 0.00 | 0.00 | 61 | 1014.0 |
| 20260504002334 | 53 | 139 | 3.0 | 11.0 | 0.00 | 0.00 | 0.00 | 59 | 1014.0 |
| 20260504001827 | 53 | 56 | 1.0 | 11.0 | 0.00 | 0.00 | 0.00 | 58 | 1014.0 |
| 20260504001330 | 53 | 136 | 2.0 | 10.0 | 0.00 | 0.00 | 0.00 | 57 | 1013.8 |
| 20260504000835 | 54 | 22 | 2.0 | 5.0 | 0.00 | 0.00 | 0.00 | 55 | 1013.8 |
| 20260504000346 | 54 | 140 | 1.0 | 8.0 | 0.00 | 0.00 | 0.00 | 55 | 1013.8 |
| 20260503235828 | 54 | 223 | 2.0 | 8.0 | 0.00 | 0.00 | 0.00 | 55 | 1013.9 |
| 20260503235332 | 54 | 24 | 3.0 | 9.0 | 0.00 | 0.00 | 0.00 | 54 | 1013.9 |
| 20260503234815 | 55 | 167 | 1.0 | 9.0 | 0.00 | 0.00 | 0.00 | 53 | 1013.9 |
| 20260503234320 | 55 | 98 | 1.0 | 12.0 | 0.00 | 0.00 | 0.00 | 51 | 1013.6 |
| 20260503233824 | 56 | 254 | 1.0 | 12.0 | 0.00 | 0.00 | 0.00 | 50 | 1013.6 |
| 20260503233334 | 56 | 42 | 3.0 | 10.0 | 0.00 | 0.00 | 0.00 | 48 | 1013.6 |
| 20260503232817 | 57 | 140 | 2.0 | 9.0 | 0.00 | 0.00 | 0.00 | 45 | 1013.4 |
| 20260503232329 | 57 | 107 | 4.0 | 9.0 | 0.00 | 0.00 | 0.00 | 43 | 1013.4 |
| 20260503231855 | 57 | 92 | 3.0 | 7.0 | 0.00 | 0.00 | 0.00 | 42 | 1013.4 |
| 20260503231355 | 57 | 115 | 1.0 | 7.0 | 0.00 | 0.00 | 0.00 | 43 | 1013.4 |
| 20260503230823 | 57 | 182 | 2.0 | 7.0 | 0.00 | 0.00 | 0.00 | 42 | 1013.4 |
| 20260503230333 | 57 | 205 | 2.0 | 7.0 | 0.00 | 0.00 | 0.00 | 43 | 1013.4 |
| 20260503225834 | 57 | 273 | 0.0 | 7.0 | 0.00 | 0.00 | 0.00 | 44 | 1013.5 |
| 20260503225320 | 58 | 93 | 2.0 | 6.0 | 0.00 | 0.00 | 0.00 | 43 | 1013.5 |
| 20260503224846 | 58 | 32 | 1.0 | 14.0 | 0.00 | 0.00 | 0.00 | 43 | 1013.5 |
| 20260503224330 | 58 | 168 | 3.0 | 14.0 | 0.00 | 0.00 | 0.00 | 41 | 1013.8 |
| 20260503223836 | 58 | 68 | 2.0 | 8.0 | 0.00 | 0.00 | 0.00 | 42 | 1013.8 |
| 20260503223321 | 58 | 169 | 2.0 | 9.0 | 0.00 | 0.00 | 0.00 | 41 | 1013.8 |
| 20260503222823 | 58 | 161 | 2.0 | 11.0 | 0.00 | 0.00 | 0.00 | 42 | 1013.9 |
| 20260503222351 | 58 | 205 | 2.0 | 11.0 | 0.00 | 0.00 | 0.00 | 41 | 1013.9 |
| 20260503221819 | 58 | 124 | 2.0 | 9.0 | 0.00 | 0.00 | 0.00 | 41 | 1013.9 |
| 20260503221325 | 59 | 158 | 4.0 | 9.0 | 0.00 | 0.00 | 0.00 | 39 | 1014.0 |
| 20260503220831 | 59 | 171 | 1.0 | 6.0 | 0.00 | 0.00 | 0.00 | 40 | 1014.0 |
| 20260503220356 | 59 | 195 | 1.0 | 8.0 | 0.00 | 0.00 | 0.00 | 41 | 1014.0 |
| 20260503215839 | 59 | 136 | 2.0 | 11.0 | 0.00 | 0.00 | 0.00 | 40 | 1014.0 |
| 20260503215323 | 59 | 137 | 3.0 | 11.0 | 0.00 | 0.00 | 0.00 | 40 | 1014.0 |
| 20260503214832 | 59 | 179 | 2.0 | 9.0 | 0.00 | 0.00 | 0.00 | 41 | 1014.0 |
| 20260503214337 | 58 | 87 | 3.0 | 9.0 | 0.00 | 0.00 | 0.00 | 41 | 1014.1 |
| 20260503213822 | 58 | 180 | 2.0 | 9.0 | 0.00 | 0.00 | 0.00 | 39 | 1014.1 |
| 20260503213346 | 58 | 169 | 2.0 | 7.0 | 0.00 | 0.00 | 0.00 | 41 | 1014.1 |
| 20260503212851 | 59 | 193 | 2.0 | 10.0 | 0.00 | 0.00 | 0.00 | 41 | 1014.1 |
| 20260503212335 | 59 | 155 | 2.0 | 10.0 | 0.00 | 0.00 | 0.00 | 40 | 1014.1 |
| 20260503211839 | 59 | 109 | 2.0 | 7.0 | 0.00 | 0.00 | 0.00 | 40 | 1014.1 |
| 20260503211322 | 59 | 84 | 1.0 | 6.0 | 0.00 | 0.00 | 0.00 | 43 | 1014.5 |
| 20260503210831 | 59 | 165 | 2.0 | 10.0 | 0.00 | 0.00 | 0.00 | 40 | 1014.5 |
| 20260503210320 | 59 | 163 | 2.0 | 10.0 | 0.00 | 0.00 | 0.00 | 40 | 1014.5 |
| 20260503205822 | 59 | 169 | 1.0 | 7.0 | 0.00 | 0.00 | 0.00 | 44 | 1014.5 |
| 20260503205347 | 59 | 227 | 2.0 | 6.0 | 0.00 | 0.00 | 0.00 | 40 | 1014.5 |
| 20260503204830 | 59 | 175 | 2.0 | 10.0 | 0.00 | 0.00 | 0.00 | 40 | 1014.5 |
| 20260503204336 | 59 | 167 | 2.0 | 10.0 | 0.00 | 0.00 | 0.00 | 38 | 1014.5 |
| 20260503203822 | 59 | 163 | 2.0 | 9.0 | 0.00 | 0.00 | 0.00 | 41 | 1014.5 |
| 20260503203327 | 60 | 194 | 3.0 | 11.0 | 0.00 | 0.00 | 0.00 | 41 | 1014.5 |
| 20260503202829 | 59 | 289 | 2.0 | 11.0 | 0.00 | 0.00 | 0.00 | 39 | 1014.7 |
| 20260503202335 | 59 | 84 | 3.0 | 10.0 | 0.00 | 0.00 | 0.00 | 38 | 1014.7 |
| 20260503201818 | 59 | 102 | 2.0 | 10.0 | 0.00 | 0.00 | 0.00 | 38 | 1014.7 |
| 20260503201322 | 59 | 180 | 4.0 | 10.0 | 0.00 | 0.00 | 0.00 | 38 | 1014.6 |
| 20260503200835 | 60 | 167 | 4.0 | 10.0 | 0.00 | 0.00 | 0.00 | 38 | 1014.6 |
| 20260503200340 | 60 | 164 | 2.0 | 8.0 | 0.00 | 0.00 | 0.00 | 39 | 1014.6 |
| 20260503195839 | 59 | 128 | 3.0 | 11.0 | 0.00 | 0.00 | 0.00 | 44 | 1015.1 |
| 20260503195325 | 58 | 165 | 4.0 | 11.0 | 0.00 | 0.00 | 0.00 | 41 | 1015.1 |
| 20260503194834 | 58 | 169 | 3.0 | 10.0 | 0.00 | 0.00 | 0.00 | 40 | 1015.1 |
| 20260503194337 | 59 | 146 | 3.0 | 12.0 | 0.00 | 0.00 | 0.00 | 44 | 1015.3 |
| 20260503193821 | 58 | 132 | 4.0 | 12.0 | 0.00 | 0.00 | 0.00 | 42 | 1015.3 |
| 20260503193325 | 59 | 176 | 2.0 | 7.0 | 0.00 | 0.00 | 0.00 | 40 | 1015.3 |
| 20260503192850 | 59 | 236 | 2.0 | 7.0 | 0.00 | 0.00 | 0.00 | 43 | 1015.6 |
| 20260503192336 | 59 | 152 | 2.0 | 7.0 | 0.00 | 0.00 | 0.00 | 39 | 1015.6 |